Location: Helsinki
(60.1699°N, 24.9384°E)
Time: 19:44:51
(UTC+02:00)

Transit 2A Rocket - Pass Details

Date: 27 September 2023
Orbit: 593 x 903 km, 66.7° (Epoch: 28 November)

Event Time Altitude Azimuth Distance (km) Brightness Sun altitude
Rises 20:52:58 0° 297° (WNW) 3,103 10.1 -13.9°
Reaches altitude 10° 20:55:30 10° 304° (NW) 2,133 8.7 -14.2°
Maximum altitude 21:00:06 45° 17° (NNE) 889 5.4 -14.7°
Enters shadow 21:02:50 21° 81° (E) 1,433 5.9 -15.0°
Drops below altitude 10° 21:04:23 10° 91° (E) 1,986 - -15.2°
Sets 21:06:40 0° 98° (E) 2,865 - -15.4°
